| time (UTC) | temp C | wind direction | speed KPH | gust KPH | rain 1hr cm | rain 24hr cm | rain mn cm | humidity % | barometer mb |
| 20260902221006 | 15 | 234 | 1.6 | 8.0 | 0.00 | 0.41 | 0.00 | 93 | 1013.0 |
| 20260902220008 | 15 | 231 | 1.6 | 9.7 | 0.00 | 0.41 | 0.00 | 93 | 1013.0 |
| 20260902215006 | 15 | 218 | 0.0 | 8.0 | 0.00 | 0.41 | 0.41 | 93 | 1013.0 |
| 20260902214005 | 15 | 224 | 0.0 | 16.1 | 0.00 | 0.43 | 0.41 | 93 | 1012.9 |
| 20260902213008 | 15 | 230 | 0.0 | 16.1 | 0.00 | 0.43 | 0.41 | 93 | 1012.8 |
| 20260902212006 | 15 | 237 | 1.6 | 12.9 | 0.00 | 0.43 | 0.41 | 93 | 1012.8 |
| 20260902211006 | 14 | 234 | 0.0 | 11.3 | 0.00 | 0.43 | 0.41 | 93 | 1012.9 |
| 20260902210008 | 14 | 176 | 0.0 | 0.0 | 0.00 | 0.43 | 0.41 | 93 | 1012.8 |
| 20260902205006 | 14 | 203 | 0.0 | 0.0 | 0.00 | 0.43 | 0.41 | 93 | 1012.8 |
| 20260902204006 | 14 | 197 | 0.0 | 1.6 | 0.00 | 0.43 | 0.41 | 93 | 1012.7 |
| 20260902203008 | 14 | 198 | 0.0 | 0.0 | 0.00 | 0.43 | 0.41 | 93 | 1012.9 |
| 20260902202006 | 14 | 215 | 0.0 | 4.8 | 0.00 | 0.43 | 0.41 | 93 | 1013.0 |
| 20260902201005 | 14 | 211 | 0.0 | 3.2 | 0.00 | 0.43 | 0.41 | 93 | 1013.0 |
| 20260902200009 | 15 | 230 | 0.0 | 4.8 | 0.00 | 0.43 | 0.41 | 93 | 1013.0 |
| 20260902195006 | 15 | 237 | 0.0 | 4.8 | 0.00 | 0.43 | 0.41 | 92 | 1013.0 |
| 20260902194005 | 15 | 216 | 0.0 | 4.8 | 0.00 | 0.43 | 0.41 | 92 | 1013.0 |
| 20260902193010 | 15 | 202 | 0.0 | 8.0 | 0.00 | 0.43 | 0.41 | 92 | 1013.0 |
| 20260902192007 | 15 | 216 | 0.0 | 4.8 | 0.00 | 0.43 | 0.41 | 92 | 1013.0 |
| 20260902191006 | 15 | 221 | 0.0 | 8.0 | 0.00 | 0.43 | 0.41 | 92 | 1013.0 |
| 20260902190020 | 15 | 231 | 0.0 | 9.7 | 0.00 | 0.43 | 0.41 | 92 | 1012.9 |
| 20260902185006 | 15 | 204 | 0.0 | 8.0 | 0.00 | 0.43 | 0.41 | 92 | 1012.7 |
| 20260902184006 | 15 | 230 | 0.0 | 4.8 | 0.00 | 0.43 | 0.41 | 92 | 1012.8 |
| 20260902183008 | 15 | 231 | 0.0 | 3.2 | 0.00 | 0.43 | 0.41 | 92 | 1012.7 |
| 20260902182005 | 15 | 219 | 1.6 | 9.7 | 0.00 | 0.43 | 0.41 | 92 | 1012.5 |
| 20260902181006 | 15 | 186 | 0.0 | 14.5 | 0.00 | 0.43 | 0.41 | 92 | 1012.5 |
| 20260902180008 | 15 | 198 | 0.0 | 4.8 | 0.00 | 0.43 | 0.41 | 92 | 1012.6 |
| 20260902175006 | 15 | 218 | 0.0 | 9.7 | 0.00 | 0.43 | 0.41 | 92 | 1012.5 |
| 20260902174006 | 15 | 190 | 0.0 | 4.8 | 0.00 | 0.43 | 0.41 | 92 | 1012.5 |
| 20260902173008 | 16 | 194 | 0.0 | 8.0 | 0.00 | 0.43 | 0.41 | 92 | 1012.5 |
| 20260902172006 | 16 | 205 | 0.0 | 4.8 | 0.00 | 0.43 | 0.41 | 92 | 1012.6 |
| 20260902171005 | 16 | 195 | 0.0 | 9.7 | 0.00 | 0.43 | 0.41 | 92 | 1012.5 |
| 20260902170009 | 16 | 192 | 1.6 | 8.0 | 0.00 | 0.43 | 0.41 | 92 | 1012.5 |
| 20260902165006 | 16 | 209 | 0.0 | 8.0 | 0.00 | 0.43 | 0.41 | 92 | 1012.6 |
| 20260902164006 | 16 | 171 | 0.0 | 8.0 | 0.00 | 0.43 | 0.41 | 92 | 1012.7 |
| 20260902163008 | 16 | 188 | 0.0 | 11.3 | 0.03 | 0.43 | 0.41 | 92 | 1012.6 |
| 20260902162006 | 16 | 195 | 0.0 | 4.8 | 0.03 | 0.43 | 0.41 | 91 | 1012.9 |
| 20260902161006 | 16 | 198 | 0.0 | 8.0 | 0.03 | 0.43 | 0.41 | 91 | 1012.9 |
| 20260902160009 | 16 | 186 | 0.0 | 8.0 | 0.03 | 0.43 | 0.41 | 91 | 1013.0 |
| 20260902155006 | 16 | 195 | 0.0 | 8.0 | 0.03 | 0.43 | 0.41 | 91 | 1012.9 |
| 20260902154005 | 16 | 212 | 0.0 | 4.8 | 0.03 | 0.43 | 0.41 | 91 | 1013.0 |
| 20260902153008 | 16 | 195 | 0.0 | 4.8 | 0.00 | 0.43 | 0.38 | 91 | 1013.0 |
| 20260902152006 | 16 | 192 | 0.0 | 4.8 | 0.00 | 0.43 | 0.38 | 91 | 1013.0 |
| 20260902151005 | 16 | 168 | 0.0 | 16.1 | 0.03 | 0.43 | 0.38 | 91 | 1013.0 |
| 20260902150009 | 16 | 202 | 0.0 | 14.5 | 0.03 | 0.43 | 0.38 | 91 | 1013.0 |
| 20260902145006 | 16 | 202 | 0.0 | 8.0 | 0.05 | 0.43 | 0.38 | 91 | 1013.1 |
| 20260902144006 | 16 | 231 | 0.0 | 4.8 | 0.05 | 0.43 | 0.38 | 91 | 1013.1 |
| 20260902143009 | 16 | 214 | 0.0 | 8.0 | 0.10 | 0.43 | 0.38 | 91 | 1013.1 |
| 20260902142005 | 16 | 230 | 1.6 | 22.5 | 0.10 | 0.43 | 0.38 | 90 | 1013.0 |
| 20260902141006 | 16 | 227 | 3.2 | 19.3 | 0.10 | 0.41 | 0.36 | 90 | 1013.0 |
| 20260902140009 | 16 | 226 | 3.2 | 24.1 | 0.10 | 0.41 | 0.36 | 90 | 1013.0 |
| 20260902135006 | 17 | 219 | 1.6 | 14.5 | 0.08 | 0.38 | 0.33 | 90 | 1013.0 |
| 20260902134006 | 17 | 246 | 0.0 | 11.3 | 0.30 | 0.38 | 0.33 | 89 | 1013.0 |
| 20260902133008 | 17 | 227 | 0.0 | 1.6 | 0.28 | 0.33 | 0.28 | 89 | 1013.0 |
| 20260902132006 | 17 | 220 | 0.0 | 4.8 | 0.28 | 0.33 | 0.28 | 88 | 1013.0 |
| 20260902131005 | 17 | 226 | 0.0 | 16.1 | 0.25 | 0.30 | 0.25 | 87 | 1013.0 |
| 20260902130008 | 17 | 237 | 0.0 | 16.1 | 0.25 | 0.30 | 0.25 | 85 | 1013.2 |
| 20260902125006 | 17 | 233 | 1.6 | 32.2 | 0.25 | 0.30 | 0.25 | 80 | 1013.3 |
| 20260902124005 | 19 | 245 | 9.7 | 32.2 | 0.05 | 0.08 | 0.05 | 76 | 1013.2 |
| 20260902123008 | 20 | 229 | 0.0 | 16.1 | 0.00 | 0.05 | 0.00 | 76 | 1013.0 |
| 20260902122006 | 20 | 200 | 0.0 | 19.3 | 0.00 | 0.05 | 0.00 | 76 | 1013.0 |
| 20260902121006 | 20 | 227 | 3.2 | 27.4 | 0.00 | 0.05 | 0.00 | 75 | 1013.1 |
| 20260902120008 | 20 | 225 | 1.6 | 19.3 | 0.00 | 0.05 | 0.00 | 75 | 1013.0 |
| 20260902115006 | 20 | 222 | 4.8 | 25.7 | 0.00 | 0.05 | 0.00 | 75 | 1013.0 |
| 20260902114006 | 20 | 234 | 3.2 | 27.4 | 0.00 | 0.05 | 0.00 | 74 | 1013.1 |
| 20260902113008 | 20 | 226 | 3.2 | 16.1 | 0.00 | 0.05 | 0.00 | 75 | 1013.2 |
| 20260902112006 | 20 | 219 | 3.2 | 22.5 | 0.00 | 0.05 | 0.00 | 74 | 1013.2 |
| 20260902111005 | 20 | 231 | 1.6 | 19.3 | 0.00 | 0.05 | 0.00 | 74 | 1013.3 |
| 20260902110008 | 20 | 217 | 3.2 | 14.5 | 0.00 | 0.05 | 0.00 | 73 | 1013.4 |
| 20260902105006 | 20 | 221 | 1.6 | 19.3 | 0.00 | 0.05 | 0.00 | 75 | 1013.4 |
| 20260902104006 | 20 | 209 | 0.0 | 19.3 | 0.00 | 0.05 | 0.00 | 75 | 1013.5 |
| 20260902103008 | 20 | 230 | 1.6 | 19.3 | 0.00 | 0.05 | 0.00 | 77 | 1013.5 |
| 20260902102006 | 20 | 208 | 0.0 | 19.3 | 0.00 | 0.05 | 0.00 | 79 | 1013.3 |
| 20260902101006 | 19 | 236 | 1.6 | 22.5 | 0.00 | 0.05 | 0.00 | 78 | 1013.3 |
| 20260902100008 | 18 | 228 | 1.6 | 14.5 | 0.00 | 0.05 | 0.00 | 80 | 1013.3 |
| 20260902095006 | 18 | 225 | 1.6 | 16.1 | 0.00 | 0.05 | 0.00 | 80 | 1013.4 |
| 20260902094006 | 18 | 218 | 1.6 | 19.3 | 0.00 | 0.05 | 0.00 | 80 | 1013.4 |
| 20260902093008 | 18 | 242 | 3.2 | 16.1 | 0.00 | 0.05 | 0.00 | 81 | 1013.4 |
| 20260902092007 | 18 | 229 | 3.2 | 20.9 | 0.00 | 0.05 | 0.00 | 80 | 1013.5 |
| 20260902091006 | 18 | 223 | 3.2 | 19.3 | 0.00 | 0.05 | 0.00 | 82 | 1013.4 |
| 20260902090008 | 18 | 241 | 0.0 | 19.3 | 0.00 | 0.05 | 0.00 | 84 | 1013.5 |
| 20260902085005 | 18 | 239 | 1.6 | 14.5 | 0.00 | 0.05 | 0.00 | 86 | 1013.5 |
| 20260902084006 | 18 | 209 | 0.0 | 14.5 | 0.00 | 0.05 | 0.00 | 87 | 1013.5 |
| 20260902083008 | 17 | 222 | 0.0 | 14.5 | 0.00 | 0.05 | 0.00 | 87 | 1013.5 |
| 20260902082006 | 17 | 191 | 0.0 | 19.3 | 0.00 | 0.05 | 0.00 | 89 | 1013.4 |
| 20260902081006 | 17 | 204 | 0.0 | 14.5 | 0.00 | 0.05 | 0.00 | 90 | 1013.5 |
| 20260902080008 | 17 | 198 | 0.0 | 14.5 | 0.00 | 0.05 | 0.00 | 90 | 1013.4 |
| 20260902075005 | 16 | 216 | 0.0 | 16.1 | 0.00 | 0.05 | 0.00 | 91 | 1013.3 |
| 20260902074006 | 16 | 213 | 0.0 | 11.3 | 0.00 | 0.05 | 0.00 | 92 | 1013.1 |
| 20260902073009 | 16 | 182 | 0.0 | 8.0 | 0.00 | 0.05 | 0.00 | 92 | 1013.1 |
| 20260902072005 | 16 | 179 | 0.0 | 4.8 | 0.00 | 0.05 | 0.00 | 92 | 1013.1 |
| 20260902071006 | 16 | 187 | 0.0 | 3.2 | 0.00 | 0.05 | 0.00 | 92 | 1013.1 |
| 20260902070008 | 16 | 182 | 0.0 | 4.8 | 0.00 | 0.05 | 0.00 | 93 | 1013.1 |
| 20260902065006 | 15 | 128 | 0.0 | 4.8 | 0.00 | 0.05 | 0.00 | 93 | 1013.1 |
| 20260902064005 | 15 | 164 | 0.0 | 9.7 | 0.00 | 0.05 | 0.00 | 93 | 1013.2 |
| 20260902063008 | 15 | 184 | 0.0 | 11.3 | 0.00 | 0.05 | 0.00 | 93 | 1013.1 |
| 20260902062006 | 15 | 185 | 0.0 | 4.8 | 0.00 | 0.05 | 0.00 | 93 | 1013.2 |
| 20260902061005 | 15 | 199 | 0.0 | 9.7 | 0.00 | 0.05 | 0.00 | 93 | 1013.1 |
| 20260902060008 | 15 | 213 | 0.0 | 4.8 | 0.00 | 0.05 | 0.00 | 93 | 1013.1 |
| 20260902055006 | 15 | 204 | 0.0 | 19.3 | 0.00 | 0.05 | 0.00 | 93 | 1013.1 |
| 20260902054005 | 15 | 191 | 0.0 | 20.9 | 0.00 | 0.05 | 0.00 | 93 | 1013.1 |
| 20260902053009 | 15 | 222 | 0.0 | 8.0 | 0.00 | 0.05 | 0.00 | 93 | 1013.0 |
| 20260902052006 | 14 | 221 | 1.6 | 9.7 | 0.00 | 0.05 | 0.00 | 93 | 1013.0 |
| 20260902051005 | 14 | 169 | 0.0 | 4.8 | 0.00 | 0.05 | 0.00 | 93 | 1013.0 |
| 20260902050009 | 14 | 217 | 0.0 | 3.2 | 0.00 | 0.05 | 0.00 | 93 | 1013.1 |
| 20260902045006 | 14 | 192 | 0.0 | 11.3 | 0.00 | 0.05 | 0.00 | 93 | 1013.0 |
| 20260902044006 | 14 | 207 | 0.0 | 9.7 | 0.00 | 0.05 | 0.00 | 93 | 1013.0 |
| 20260902043008 | 14 | 181 | 0.0 | 4.8 | 0.00 | 0.05 | 0.00 | 93 | 1013.1 |
| 20260902042006 | 13 | 150 | 0.0 | 3.2 | 0.00 | 0.05 | 0.00 | 92 | 1013.1 |
| 20260902041006 | 13 | 199 | 0.0 | 8.0 | 0.00 | 0.05 | 0.00 | 92 | 1013.1 |
| 20260902040010 | 13 | 162 | 0.0 | 4.8 | 0.00 | 0.05 | 0.00 | 93 | 1013.0 |
| 20260902035006 | 13 | 185 | 0.0 | 1.6 | 0.00 | 0.05 | 0.00 | 92 | 1013.1 |
| 20260902034006 | 13 | 172 | 0.0 | 1.6 | 0.00 | 0.05 | 0.00 | 92 | 1013.2 |
| 20260902033010 | 13 | 175 | 0.0 | 0.0 | 0.00 | 0.05 | 0.00 | 92 | 1013.3 |
| 20260902032006 | 12 | 191 | 0.0 | 1.6 | 0.00 | 0.05 | 0.00 | 92 | 1013.4 |
| 20260902031007 | 12 | 188 | 0.0 | 0.0 | 0.00 | 0.05 | 0.00 | 91 | 1013.5 |
| 20260902030008 | 12 | 181 | 0.0 | 3.2 | 0.00 | 0.05 | 0.00 | 91 | 1013.5 |
| 20260902025006 | 12 | 206 | 0.0 | 3.2 | 0.00 | 0.10 | 0.00 | 91 | 1013.5 |
| 20260902024006 | 12 | 210 | 0.0 | 3.2 | 0.00 | 0.10 | 0.00 | 91 | 1013.5 |
| 20260902023008 | 12 | 184 | 0.0 | 0.0 | 0.00 | 0.10 | 0.00 | 90 | 1013.4 |
| 20260902022005 | 13 | 222 | 0.0 | 1.6 | 0.00 | 0.10 | 0.00 | 90 | 1013.4 |
| 20260902021005 | 13 | 185 | 0.0 | 0.0 | 0.00 | 0.10 | 0.00 | 89 | 1013.4 |
| 20260902020008 | 13 | 206 | 0.0 | 3.2 | 0.00 | 0.10 | 0.00 | 89 | 1013.3 |
| 20260902015006 | 13 | 224 | 0.0 | 0.0 | 0.00 | 0.10 | 0.00 | 89 | 1013.3 |
| 20260902014006 | 13 | 189 | 0.0 | 0.0 | 0.00 | 0.10 | 0.00 | 89 | 1013.4 |
| 20260902013009 | 13 | 198 | 0.0 | 0.0 | 0.00 | 0.10 | 0.00 | 89 | 1013.4 |
| 20260902012006 | 14 | 230 | 0.0 | 4.8 | 0.00 | 0.10 | 0.00 | 89 | 1013.4 |
| 20260902011006 | 14 | 208 | 0.0 | 4.8 | 0.00 | 0.10 | 0.00 | 89 | 1013.4 |
| 20260902010009 | 14 | 224 | 0.0 | 4.8 | 0.00 | 0.10 | 0.00 | 89 | 1013.4 |
| 20260902005006 | 14 | 229 | 0.0 | 4.8 | 0.00 | 0.10 | 0.00 | 89 | 1013.4 |
| 20260902004006 | 14 | 227 | 0.0 | 8.0 | 0.00 | 0.10 | 0.00 | 89 | 1013.5 |
| 20260902003009 | 14 | 244 | 0.0 | 4.8 | 0.00 | 0.10 | 0.00 | 89 | 1013.5 |
| 20260902002005 | 14 | 230 | 0.0 | 4.8 | 0.00 | 0.10 | 0.00 | 89 | 1013.4 |
| 20260902001006 | 14 | 226 | 0.0 | 3.2 | 0.00 | 0.10 | 0.00 | 89 | 1013.5 |
| 20260902000008 | 14 | 226 | 0.0 | 4.8 | 0.00 | 0.10 | 0.00 | 89 | 1013.5 |
| 20260901235006 | 14 | 302 | 0.0 | 1.6 | 0.00 | 0.10 | 0.00 | 89 | 1013.6 |
| 20260901234006 | 14 | 300 | 0.0 | 9.7 | 0.00 | 0.10 | 0.00 | 89 | 1013.6 |
| 20260901233008 | 14 | 265 | 0.0 | 0.0 | 0.00 | 0.10 | 0.00 | 88 | 1013.6 |
| 20260901232006 | 14 | 253 | 0.0 | 8.0 | 0.00 | 0.10 | 0.00 | 88 | 1013.6 |
| 20260901231006 | 15 | 265 | 0.0 | 8.0 | 0.00 | 0.10 | 0.00 | 89 | 1013.6 |
| 20260901230008 | 15 | 276 | 0.0 | 3.2 | 0.00 | 0.10 | 0.00 | 89 | 1013.6 |
| 20260901225006 | 15 | 219 | 0.0 | 4.8 | 0.00 | 0.10 | 0.00 | 90 | 1013.4 |
| 20260901224006 | 15 | 222 | 0.0 | 9.7 | 0.05 | 0.10 | 0.00 | 90 | 1013.3 |
| 20260901223009 | 15 | 243 | 0.0 | 8.0 | 0.05 | 0.10 | 0.00 | 90 | 1013.2 |
| 20260901222006 | 15 | 201 | 0.0 | 11.3 | 0.05 | 0.10 | 0.00 | 90 | 1013.3 |